Date String (YYYY-MM-DD hh:mm:ss) UTC,Instrument flags,Ambient pressure (hPa),Sample flow (lpm),Bypass flow (lpm),Sample temperature (°C),Ambient temperature (°C),ASC tube jacket temperature (°C),LED temperature (°C),Box temperature (°C),Sample RH (%),Span deviation,Mass concentration (μg/m³),Mass concentration (μg/m³),Mass concentration (μg/m³)
DateTimeUTC,F1_M11,P_M11,Q1_M11,Q2_M11,T1_M11,T2_M11,T3_M11,T4_M11,T5_M11,U1_M11,ZSPAN_M11,X0_M11,X2_M11,X1_M11
2022-12-02 16:00:00,,0813.0,5.00,0.00,21.2,21.1,00.0,30.0,23.2,15.7,0000.0,0002.91,0000.50,0000.23
2022-12-02 16:01:00,,0813.1,5.00,0.00,21.2,20.7,00.0,30.1,23.1,15.3,0000.0,0002.97,0000.52,0000.24
2022-12-02 16:02:00,,0813.2,5.01,0.00,21.2,20.4,00.0,30.1,23.0,15.7,0000.0,0003.01,0000.54,0000.24
2022-12-02 16:03:00,,0813.3,5.01,0.00,21.2,20.2,00.0,30.1,23.0,16.4,0000.0,0002.67,0000.56,0000.25
2022-12-02 16:04:00,,0813.4,5.00,0.00,21.2,20.0,00.0,30.1,23.0,16.6,0000.0,0001.81,0000.57,0000.25
2022-12-02 16:05:00,,0813.3,5.00,0.00,21.2,19.9,00.0,30.1,22.9,15.7,0000.0,0001.78,0000.58,0000.26
2022-12-02 16:06:00,,0813.3,4.99,0.00,21.2,19.7,00.0,30.1,22.9,15.4,0000.0,0002.72,0000.57,0000.26
2022-12-02 16:07:00,,0813.2,5.00,0.00,21.1,19.7,00.0,30.1,22.9,15.8,0000.0,0002.27,0000.58,0000.26
2022-12-02 16:08:00,,0813.3,4.99,0.00,21.1,19.7,00.0,30.1,22.9,15.6,0000.0,0002.20,0000.57,0000.27
2022-12-02 16:09:00,,0813.4,5.01,0.00,21.1,19.6,00.0,30.1,22.8,15.7,0000.0,0002.20,0000.56,0000.26
2022-12-02 16:10:00,,0813.4,5.01,0.00,21.1,19.6,00.0,30.1,22.8,16.0,0000.0,0002.24,0000.54,0000.26
2022-12-02 16:11:00,,0813.5,5.00,0.00,21.1,19.5,00.0,30.1,22.8,16.0,0000.0,0002.20,0000.51,0000.26
2022-12-02 16:12:00,,0813.5,4.98,0.00,21.0,19.5,00.0,30.1,22.7,15.9,0000.0,0002.12,0000.48,0000.26
2022-12-02 16:13:00,,0813.4,5.00,0.00,21.0,19.4,00.0,30.1,22.7,16.0,0000.0,0002.10,0000.48,0000.26
2022-12-02 16:14:00,,0813.4,5.00,0.00,21.0,19.5,00.0,30.1,22.7,16.4,0000.0,0002.17,0000.51,0000.26
2022-12-02 16:15:00,,0813.4,5.01,0.00,21.0,19.5,00.0,30.1,22.7,16.4,0000.0,0002.15,0000.51,0000.26
2022-12-02 16:16:00,,0813.4,5.00,0.00,21.0,19.5,00.0,30.1,22.7,16.4,0000.0,0002.16,0000.51,0000.27
2022-12-02 16:17:00,,0813.6,5.00,0.00,21.0,19.5,00.0,30.1,22.7,16.4,0000.0,0002.16,0000.53,0000.27
2022-12-02 16:18:00,,0813.7,5.00,0.00,21.0,19.5,00.0,30.1,22.7,16.5,0000.0,0001.24,0000.53,0000.27
2022-12-02 16:19:00,,0813.7,4.99,0.00,21.0,19.4,00.0,30.0,22.7,16.7,0000.0,0002.12,0000.54,0000.28
2022-12-02 16:20:00,,0813.6,5.00,0.00,20.9,19.4,00.0,30.0,22.7,16.9,0000.0,0002.90,0000.58,0000.28
2022-12-02 16:21:00,,0814.0,4.99,0.00,20.9,19.4,00.0,30.0,22.7,16.6,0000.0,0002.89,0000.59,0000.29
2022-12-02 16:22:00,,0814.1,5.00,0.00,20.9,19.4,00.0,30.0,22.6,16.5,0000.0,0002.83,0000.60,0000.30
2022-12-02 16:23:00,,0813.9,5.02,0.00,20.9,19.3,00.0,30.0,22.6,17.0,0000.0,0002.82,0000.61,0000.30
2022-12-02 16:24:00,,0813.9,5.01,0.00,20.9,19.4,00.0,30.0,22.7,16.8,0000.0,0002.93,0000.63,0000.31
2022-12-02 16:25:00,,0814.1,4.99,0.00,20.9,19.4,00.0,30.0,22.6,16.8,0000.0,0002.90,0000.61,0000.33
2022-12-02 16:26:00,,0814.1,4.99,0.00,20.9,19.4,00.0,30.0,22.7,16.8,0000.0,0002.82,0000.57,0000.33
2022-12-02 16:27:00,,0814.4,5.00,0.00,20.9,19.3,00.0,30.0,22.6,16.7,0000.0,0002.78,0000.56,0000.32
2022-12-02 16:28:00,,0814.1,5.01,0.00,20.9,19.3,00.0,30.0,22.6,17.0,0000.0,0002.75,0000.55,0000.32
2022-12-02 16:29:00,,0814.1,5.01,0.00,20.9,19.3,00.0,29.9,22.6,16.8,0000.0,0002.61,0000.53,0000.31
2022-12-02 16:30:00,,0814.3,4.99,0.00,20.8,19.3,00.0,29.9,22.6,16.4,0000.0,0001.60,0000.51,0000.31
2022-12-02 16:31:00,,0814.1,4.99,0.00,20.8,19.3,00.0,29.9,22.6,16.5,0000.0,0000.83,0000.46,0000.30
2022-12-02 16:32:00,,0814.1,4.99,0.00,20.8,19.3,00.0,29.9,22.5,16.7,0000.0,0000.79,0000.44,0000.28
2022-12-02 16:33:00,,0814.3,5.00,0.00,20.8,19.3,00.0,29.9,22.5,17.1,0000.0,0000.82,0000.43,0000.27
2022-12-02 16:34:00,,0814.0,5.02,0.00,20.8,19.3,00.0,29.9,22.6,17.6,0000.0,0000.78,0000.42,0000.27
2022-12-02 16:35:00,,0813.8,5.00,0.00,20.8,19.3,00.0,29.9,22.6,17.4,0000.0,0000.67,0000.41,0000.27
2022-12-02 16:36:00,,0813.9,5.00,0.00,20.8,19.4,00.0,29.9,22.6,17.5,0000.0,0000.68,0000.42,0000.25
2022-12-02 16:37:00,,0813.9,5.00,0.00,20.8,19.4,00.0,29.9,22.6,17.7,0000.0,0000.66,0000.41,0000.25
2022-12-02 16:38:00,,0814.0,4.99,0.00,20.8,19.4,00.0,29.9,22.6,17.4,0000.0,0000.63,0000.39,0000.25
2022-12-02 16:39:00,,0814.2,5.00,0.00,20.8,19.4,00.0,29.9,22.6,17.7,0000.0,0000.66,0000.40,0000.25
2022-12-02 16:40:00,,0814.2,4.99,0.00,20.8,19.5,00.0,29.9,22.6,17.3,0000.0,0001.05,0000.41,0000.25
2022-12-02 16:41:00,,0814.1,5.02,0.00,20.8,19.5,00.0,29.9,22.6,17.2,0000.0,0001.48,0000.43,0000.27
2022-12-02 16:42:00,,0814.1,4.99,0.00,20.8,19.6,00.0,29.8,22.6,17.5,0000.0,0001.93,0000.47,0000.28
2022-12-02 16:43:00,,0814.1,4.99,0.00,20.8,19.6,00.0,29.8,22.6,17.3,0000.0,0002.19,0000.55,0000.30
2022-12-02 16:44:00,,0814.3,5.00,0.00,20.8,19.6,00.0,29.8,22.7,17.1,0000.0,0002.31,0000.60,0000.31
2022-12-02 16:45:00,,0814.1,5.02,0.00,20.9,19.7,00.0,29.8,22.7,17.1,0000.0,0002.35,0000.62,0000.31
2022-12-02 16:46:00,,0814.0,5.00,0.00,20.9,19.7,00.0,29.8,22.7,17.2,0000.0,0002.58,0000.68,0000.32
2022-12-02 16:47:00,,0814.1,4.98,0.00,20.9,19.8,00.0,29.8,22.8,17.7,0000.0,0002.88,0000.74,0000.34
2022-12-02 16:48:00,,0814.4,5.00,0.00,20.9,19.8,00.0,29.9,22.8,17.9,0000.0,0002.93,0000.76,0000.35
2022-12-02 16:49:00,,0814.2,5.00,0.00,20.9,19.9,00.0,29.9,22.8,17.7,0000.0,0003.69,0000.79,0000.35
2022-12-02 16:50:00,,0814.0,5.00,0.00,21.0,19.9,00.0,29.9,22.9,17.0,0000.0,0003.85,0000.80,0000.36
2022-12-02 16:51:00,,0814.0,5.00,0.00,21.0,19.9,00.0,29.9,22.8,17.1,0000.0,0003.53,0000.81,0000.37
2022-12-02 16:52:00,,0814.0,5.00,0.00,21.0,19.9,00.0,29.9,22.9,17.0,0000.0,0003.17,0000.82,0000.37
2022-12-02 16:53:00,,0814.2,5.00,0.00,21.0,19.9,00.0,29.9,22.9,16.8,0000.0,0002.72,0000.79,0000.36
2022-12-02 16:54:00,,0814.3,5.01,0.00,21.0,19.9,00.0,29.9,22.9,16.7,0000.0,0002.62,0000.74,0000.35
2022-12-02 16:55:00,,0814.3,5.00,0.00,21.0,19.9,00.0,29.9,22.9,17.0,0000.0,0002.57,0000.72,0000.34
2022-12-02 16:56:00,,0814.3,5.00,0.00,21.0,19.9,00.0,29.9,22.9,17.5,0000.0,0002.59,0000.75,0000.34
2022-12-02 16:57:00,,0814.4,4.99,0.00,21.1,20.0,00.0,29.9,22.9,17.2,0000.0,0002.40,0000.69,0000.33
2022-12-02 16:58:00,,0814.3,4.99,0.00,21.1,20.0,00.0,29.9,22.9,17.1,0000.0,0002.06,0000.61,0000.30
2022-12-02 16:59:00,,0814.2,5.01,0.00,21.1,20.0,00.0,30.0,23.0,16.9,0000.0,0002.19,0000.60,0000.29
